Time,TemperatureF,DewpointF,PressureIn,WindDirection,WindDirectionDegrees,WindSpeedMPH,WindSpeedGustMPH,Humidity,HourlyPrecipIn,Conditions,Clouds,dailyrainin,SoftwareType,DateUTC
2013-06-16 00:00:00,64.2,63.0,29.81,NE,35,0.0,17.0,96,0.00,,,0.11,Wunderground v.1.15,2013-06-16 05:00:00,
2013-06-16 00:02:00,64.1,62.9,29.81,NE,36,0.0,17.0,96,0.00,,,0.11,Wunderground v.1.15,2013-06-16 05:02:00,
2013-06-16 00:04:00,64.1,62.9,29.81,NE,35,0.0,17.0,96,0.00,,,0.00,Wunderground v.1.15,2013-06-16 05:04:00,
2013-06-16 00:06:00,64.1,62.9,29.81,NE,35,0.0,17.0,96,0.00,,,0.00,Wunderground v.1.15,2013-06-16 05:06:00,
2013-06-16 00:08:00,64.2,63.3,29.81,NE,36,0.0,17.0,97,0.00,,,0.00,Wunderground v.1.15,2013-06-16 05:08:00,
2013-06-16 00:12:00,64.4,63.8,29.81,NE,36,0.0,0.0,98,0.00,,,0.00,Wunderground v.1.15,2013-06-16 05:12:00,
2013-06-16 00:14:00,64.4,63.5,29.81,NE,36,0.0,0.0,97,0.00,,,0.00,Wunderground v.1.15,2013-06-16 05:14:00,
2013-06-16 00:16:00,64.3,63.4,29.81,NE,37,0.0,0.0,97,0.00,,,0.00,Wunderground v.1.15,2013-06-16 05:16:00,
2013-06-16 00:20:00,64.5,63.6,29.81,NE,36,0.0,0.0,97,0.00,,,0.00,Wunderground v.1.15,2013-06-16 05:20:00,
2013-06-16 00:22:00,64.4,63.5,29.81,NE,36,0.0,0.0,97,0.00,,,0.00,Wunderground v.1.15,2013-06-16 05:22:00,
2013-06-16 00:24:00,64.3,63.4,29.81,NE,37,0.0,0.0,97,0.00,,,0.00,Wunderground v.1.15,2013-06-16 05:24:00,
2013-06-16 00:28:00,64.4,63.8,29.81,NE,37,0.0,0.0,98,0.00,,,0.00,Wunderground v.1.15,2013-06-16 05:28:00,
2013-06-16 00:30:00,64.5,63.9,29.82,NE,35,0.0,1.0,98,0.00,,,0.00,Wunderground v.1.15,2013-06-16 05:30:00,
2013-06-16 00:34:00,64.5,63.9,29.82,NE,37,1.0,1.0,98,0.00,,,0.00,Wunderground v.1.15,2013-06-16 05:34:00,
2013-06-16 00:36:00,64.5,63.9,29.82,NE,36,1.0,1.0,98,0.00,,,0.00,Wunderground v.1.15,2013-06-16 05:36:00,
2013-06-16 00:40:00,64.5,63.9,29.82,NE,37,1.0,1.0,98,0.00,,,0.00,Wunderground v.1.15,2013-06-16 05:40:00,
2013-06-16 00:42:00,64.5,63.9,29.82,NE,35,1.0,1.0,98,0.00,,,0.00,Wunderground v.1.15,2013-06-16 05:42:00,
2013-06-16 00:44:00,64.4,63.5,29.81,North,360,1.0,1.0,97,0.00,,,0.00,Wunderground v.1.15,2013-06-16 05:44:00,
2013-06-16 00:46:00,64.2,63.3,29.82,North,352,1.0,1.0,97,0.00,,,0.00,Wunderground v.1.15,2013-06-16 05:46:00,
2013-06-16 00:48:00,64.0,63.1,29.81,North,352,1.0,1.0,97,0.00,,,0.00,Wunderground v.1.15,2013-06-16 05:48:00,
2013-06-16 00:54:00,63.3,62.1,29.81,North,352,1.0,1.0,96,0.00,,,0.00,Wunderground v.1.15,2013-06-16 05:54:00,
2013-06-16 00:58:00,63.2,62.6,29.81,North,352,0.0,1.0,98,0.00,,,0.00,Wunderground v.1.15,2013-06-16 05:58:00,
2013-06-16 01:00:00,63.1,62.2,29.81,North,352,0.0,1.0,97,0.00,,,0.00,Wunderground v.1.15,2013-06-16 06:00:00,
2013-06-16 01:02:00,62.8,61.9,29.81,North,352,0.0,1.0,97,0.00,,,0.00,Wunderground v.1.15,2013-06-16 06:02:00,
2013-06-16 01:06:00,62.4,61.5,29.81,North,352,0.0,1.0,97,0.00,,,0.00,Wunderground v.1.15,2013-06-16 06:06:00,
2013-06-16 01:08:00,62.2,61.3,29.81,North,352,0.0,1.0,97,0.00,,,0.00,Wunderground v.1.15,2013-06-16 06:08:00,
2013-06-16 01:10:00,62.1,61.2,29.81,North,352,0.0,1.0,97,0.00,,,0.00,Wunderground v.1.15,2013-06-16 06:10:00,
2013-06-16 01:14:00,61.9,61.0,29.81,North,352,0.0,1.0,97,0.00,,,0.00,Wunderground v.1.15,2013-06-16 06:14:00,
2013-06-16 01:16:00,61.8,60.9,29.81,North,352,0.0,1.0,97,0.00,,,0.00,Wunderground v.1.15,2013-06-16 06:16:00,
2013-06-16 01:20:00,62.0,61.7,29.81,North,352,0.0,1.0,99,0.00,,,0.00,Wunderground v.1.15,2013-06-16 06:20:00,
2013-06-16 01:22:00,62.1,61.8,29.81,North,352,0.0,1.0,99,0.00,,,0.00,Wunderground v.1.15,2013-06-16 06:22:00,
2013-06-16 01:26:00,62.2,61.9,29.81,North,352,0.0,1.0,99,0.00,,,0.00,Wunderground v.1.15,2013-06-16 06:26:00,
2013-06-16 01:32:00,62.2,61.6,29.81,North,352,0.0,1.0,98,0.00,,,0.00,Wunderground v.1.15,2013-06-16 06:32:00,
2013-06-16 01:34:00,62.1,61.5,29.80,North,352,0.0,1.0,98,0.00,,,0.00,Wunderground v.1.15,2013-06-16 06:34:00,
2013-06-16 01:36:00,62.0,61.4,29.80,North,352,0.0,1.0,98,0.00,,,0.00,Wunderground v.1.15,2013-06-16 06:36:00,
2013-06-16 01:38:00,61.9,61.3,29.80,North,352,0.0,1.0,98,0.00,,,0.00,Wunderground v.1.15,2013-06-16 06:38:00,
2013-06-16 01:40:00,61.8,61.2,29.80,North,352,0.0,1.0,98,0.00,,,0.00,Wunderground v.1.15,2013-06-16 06:40:00,
2013-06-16 01:42:00,61.7,61.1,29.80,North,352,0.0,1.0,98,0.00,,,0.00,Wunderground v.1.15,2013-06-16 06:42:00,
2013-06-16 01:46:00,61.6,61.0,29.80,North,352,0.0,1.0,98,0.00,,,0.00,Wunderground v.1.15,2013-06-16 06:46:00,
2013-06-16 01:48:00,61.6,61.0,29.80,North,352,0.0,1.0,98,0.00,,,0.00,Wunderground v.1.15,2013-06-16 06:48:00,
2013-06-16 01:52:00,61.6,61.0,29.80,North,352,0.0,1.0,98,0.00,,,0.00,Wunderground v.1.15,2013-06-16 06:52:00,
2013-06-16 01:54:00,61.6,61.3,29.80,North,352,0.0,1.0,99,0.00,,,0.00,Wunderground v.1.15,2013-06-16 06:54:00,
2013-06-16 01:58:00,61.9,61.6,29.80,North,352,0.0,1.0,99,0.00,,,0.00,Wunderground v.1.15,2013-06-16 06:58:00,
2013-06-16 02:00:00,62.0,61.7,29.80,North,352,0.0,1.0,99,0.00,,,0.00,Wunderground v.1.15,2013-06-16 07:00:00,
2013-06-16 02:02:00,62.0,61.7,29.80,North,352,0.0,1.0,99,0.00,,,0.00,Wunderground v.1.15,2013-06-16 07:02:00,
2013-06-16 02:04:00,62.0,61.7,29.80,North,352,0.0,1.0,99,0.00,,,0.00,Wunderground v.1.15,2013-06-16 07:04:00,
2013-06-16 02:08:00,61.7,61.4,29.81,North,352,0.0,1.0,99,0.00,,,0.00,Wunderground v.1.15,2013-06-16 07:08:00,
2013-06-16 02:14:00,61.7,61.4,29.81,North,352,0.0,1.0,99,0.00,,,0.00,Wunderground v.1.15,2013-06-16 07:14:00,
2013-06-16 02:16:00,61.7,61.4,29.81,North,352,0.0,1.0,99,0.00,,,0.00,Wunderground v.1.15,2013-06-16 07:16:00,
2013-06-16 02:18:00,61.7,61.4,29.81,North,352,0.0,1.0,99,0.00,,,0.00,Wunderground v.1.15,2013-06-16 07:18:00,
2013-06-16 02:20:00,61.7,61.4,29.81,North,352,0.0,1.0,99,0.00,,,0.00,Wunderground v.1.15,2013-06-16 07:20:00,
2013-06-16 02:22:00,61.8,61.5,29.81,North,352,0.0,1.0,99,0.00,,,0.00,Wunderground v.1.15,2013-06-16 07:22:00,
2013-06-16 02:24:00,61.9,61.6,29.81,North,352,0.0,1.0,99,0.00,,,0.00,Wunderground v.1.15,2013-06-16 07:24:00,
2013-06-16 02:26:00,62.0,62.0,29.81,North,352,0.0,1.0,100,0.00,,,0.00,Wunderground v.1.15,2013-06-16 07:26:00,
2013-06-16 02:28:00,62.1,61.8,29.81,North,352,0.0,1.0,99,0.00,,,0.00,Wunderground v.1.15,2013-06-16 07:28:00,
2013-06-16 02:30:00,61.9,61.6,29.82,North,352,0.0,1.0,99,0.00,,,0.00,Wunderground v.1.15,2013-06-16 07:30:00,
2013-06-16 02:32:00,61.8,61.5,29.82,North,352,0.0,1.0,99,0.00,,,0.00,Wunderground v.1.15,2013-06-16 07:32:00,
2013-06-16 02:36:00,61.2,60.6,29.82,North,352,0.0,1.0,98,0.00,,,0.00,Wunderground v.1.15,2013-06-16 07:36:00,
2013-06-16 02:42:00,60.6,60.0,29.82,North,352,0.0,1.0,98,0.00,,,0.00,Wunderground v.1.15,2013-06-16 07:42:00,
2013-06-16 02:46:00,60.5,60.2,29.82,North,352,0.0,1.0,99,0.00,,,0.00,Wunderground v.1.15,2013-06-16 07:46:00,
2013-06-16 02:48:00,60.4,60.1,29.82,North,352,0.0,1.0,99,0.00,,,0.00,Wunderground v.1.15,2013-06-16 07:48:00,
2013-06-16 02:54:00,60.1,59.8,29.82,North,352,0.0,1.0,99,0.00,,,0.00,Wunderground v.1.15,2013-06-16 07:54:00,
2013-06-16 02:58:00,60.6,60.6,29.82,North,352,0.0,1.0,100,0.00,,,0.00,Wunderground v.1.15,2013-06-16 07:58:00,
2013-06-16 03:00:00,60.8,60.8,29.82,North,352,0.0,1.0,100,0.00,,,0.00,Wunderground v.1.15,2013-06-16 08:00:00,
2013-06-16 03:02:00,60.8,60.8,29.82,North,352,0.0,1.0,100,0.00,,,0.00,Wunderground v.1.15,2013-06-16 08:02:00,
2013-06-16 03:04:00,60.8,60.8,29.82,North,352,0.0,1.0,100,0.00,,,0.00,Wunderground v.1.15,2013-06-16 08:04:00,
2013-06-16 03:08:00,60.7,60.7,29.82,North,353,0.0,1.0,100,0.00,,,0.00,Wunderground v.1.15,2013-06-16 08:08:00,
2013-06-16 03:10:00,60.7,60.4,29.82,North,352,0.0,1.0,99,0.00,,,0.00,Wunderground v.1.15,2013-06-16 08:10:00,
2013-06-16 03:12:00,60.7,60.4,29.82,North,352,0.0,1.0,99,0.00,,,0.00,Wunderground v.1.15,2013-06-16 08:12:00,
2013-06-16 03:16:00,60.6,60.3,29.82,North,352,0.0,1.0,99,0.00,,,0.00,Wunderground v.1.15,2013-06-16 08:16:00,
2013-06-16 03:18:00,60.7,60.4,29.81,North,352,0.0,1.0,99,0.00,,,0.00,Wunderground v.1.15,2013-06-16 08:18:00,
2013-06-16 03:20:00,60.8,60.8,29.81,North,352,0.0,1.0,100,0.00,,,0.00,Wunderground v.1.15,2013-06-16 08:20:00,
2013-06-16 03:24:00,60.6,60.3,29.82,North,352,0.0,1.0,99,0.00,,,0.00,Wunderground v.1.15,2013-06-16 08:24:00,
2013-06-16 03:26:00,60.5,60.2,29.82,North,352,0.0,1.0,99,0.00,,,0.00,Wunderground v.1.15,2013-06-16 08:26:00,
2013-06-16 03:28:00,60.4,60.1,29.82,North,352,0.0,1.0,99,0.00,,,0.00,Wunderground v.1.15,2013-06-16 08:28:00,
2013-06-16 03:30:00,60.5,60.5,29.82,North,352,0.0,1.0,100,0.00,,,0.00,Wunderground v.1.15,2013-06-16 08:30:00,
2013-06-16 03:32:00,60.5,60.5,29.82,North,352,0.0,1.0,100,0.00,,,0.00,Wunderground v.1.15,2013-06-16 08:32:00,
2013-06-16 03:34:00,60.4,60.4,29.82,North,352,0.0,1.0,100,0.00,,,0.00,Wunderground v.1.15,2013-06-16 08:34:00,
2013-06-16 03:38:00,60.1,60.1,29.82,North,352,0.0,1.0,100,0.00,,,0.00,Wunderground v.1.15,2013-06-16 08:38:00,
2013-06-16 03:40:00,60.2,60.2,29.83,North,352,0.0,1.0,100,0.00,,,0.00,Wunderground v.1.15,2013-06-16 08:40:00,
2013-06-16 03:42:00,60.6,60.6,29.83,North,352,0.0,1.0,100,0.00,,,0.00,Wunderground v.1.15,2013-06-16 08:42:00,
2013-06-16 03:46:00,61.3,61.3,29.83,North,352,0.0,1.0,100,0.00,,,0.00,Wunderground v.1.15,2013-06-16 08:46:00,
2013-06-16 03:48:00,60.7,60.7,29.83,North,352,0.0,1.0,100,0.00,,,0.00,Wunderground v.1.15,2013-06-16 08:48:00,
2013-06-16 03:50:00,60.1,60.1,29.83,North,352,0.0,1.0,100,0.00,,,0.00,Wunderground v.1.15,2013-06-16 08:50:00,
2013-06-16 03:52:00,59.6,59.3,29.83,North,352,0.0,1.0,99,0.00,,,0.00,Wunderground v.1.15,2013-06-16 08:52:00,
2013-06-16 03:54:00,59.3,58.7,29.83,North,353,0.0,1.0,98,0.00,,,0.00,Wunderground v.1.15,2013-06-16 08:54:00,
2013-06-16 03:58:00,59.2,58.9,29.83,North,353,0.0,1.0,99,0.00,,,0.00,Wunderground v.1.15,2013-06-16 08:58:00,
2013-06-16 04:00:00,59.1,58.8,29.83,North,352,0.0,1.0,99,0.00,,,0.00,Wunderground v.1.15,2013-06-16 09:00:00,
2013-06-16 04:02:00,59.0,58.7,29.83,North,352,0.0,1.0,99,0.00,,,0.00,Wunderground v.1.15,2013-06-16 09:02:00,
2013-06-16 04:04:00,59.2,58.9,29.83,North,352,0.0,1.0,99,0.00,,,0.00,Wunderground v.1.15,2013-06-16 09:04:00,
2013-06-16 04:08:00,59.0,58.7,29.83,North,352,1.0,1.0,99,0.00,,,0.00,Wunderground v.1.15,2013-06-16 09:08:00,
2013-06-16 04:10:00,59.0,58.7,29.84,North,352,1.0,1.0,99,0.00,,,0.00,Wunderground v.1.15,2013-06-16 09:10:00,
2013-06-16 04:14:00,59.2,59.2,29.83,North,352,1.0,1.0,100,0.00,,,0.00,Wunderground v.1.15,2013-06-16 09:14:00,
2013-06-16 04:16:00,59.1,59.1,29.83,North,352,1.0,1.0,100,0.00,,,0.00,Wunderground v.1.15,2013-06-16 09:16:00,
2013-06-16 04:20:00,58.8,58.5,29.83,North,352,0.0,1.0,99,0.00,,,0.00,Wunderground v.1.15,2013-06-16 09:20:00,
2013-06-16 04:22:00,58.6,58.3,29.83,North,353,0.0,1.0,99,0.00,,,0.00,Wunderground v.1.15,2013-06-16 09:22:00,
2013-06-16 04:24:00,58.5,58.2,29.83,North,352,0.0,1.0,99,0.00,,,0.00,Wunderground v.1.15,2013-06-16 09:24:00,
2013-06-16 04:28:00,58.7,58.7,29.83,North,352,0.0,1.0,100,0.00,,,0.00,Wunderground v.1.15,2013-06-16 09:28:00,
2013-06-16 04:30:00,58.8,58.8,29.83,North,352,0.0,1.0,100,0.00,,,0.00,Wunderground v.1.15,2013-06-16 09:30:00,
2013-06-16 04:34:00,58.9,58.9,29.83,North,352,0.0,1.0,100,0.00,,,0.00,Wunderground v.1.15,2013-06-16 09:34:00,
2013-06-16 04:38:00,58.8,58.8,29.83,North,352,0.0,1.0,100,0.00,,,0.00,Wunderground v.1.15,2013-06-16 09:38:00,
2013-06-16 04:42:00,58.9,58.9,29.83,North,352,0.0,1.0,100,0.00,,,0.00,Wunderground v.1.15,2013-06-16 09:42:00,
2013-06-16 04:44:00,58.9,58.9,29.83,North,352,0.0,1.0,100,0.00,,,0.00,Wunderground v.1.15,2013-06-16 09:44:00,
2013-06-16 04:46:00,58.8,58.8,29.83,North,352,0.0,1.0,100,0.00,,,0.00,Wunderground v.1.15,2013-06-16 09:46:00,
2013-06-16 04:50:00,58.7,58.7,29.84,North,353,0.0,1.0,100,0.00,,,0.00,Wunderground v.1.15,2013-06-16 09:50:00,
2013-06-16 04:52:00,58.6,58.6,29.84,North,352,0.0,1.0,100,0.00,,,0.00,Wunderground v.1.15,2013-06-16 09:52:00,
2013-06-16 04:54:00,58.6,58.6,29.84,North,352,0.0,1.0,100,0.00,,,0.00,Wunderground v.1.15,2013-06-16 09:54:00,
2013-06-16 04:56:00,58.6,58.6,29.84,North,352,0.0,1.0,100,0.00,,,0.00,Wunderground v.1.15,2013-06-16 09:56:00,
2013-06-16 04:58:00,58.5,58.5,29.84,North,352,0.0,1.0,100,0.00,,,0.00,Wunderground v.1.15,2013-06-16 09:58:00,
2013-06-16 05:00:00,58.5,58.5,29.84,North,352,0.0,1.0,100,0.00,,,0.00,Wunderground v.1.15,2013-06-16 10:00:00,
2013-06-16 05:02:00,58.5,58.5,29.84,North,352,0.0,1.0,100,0.00,,,0.00,Wunderground v.1.15,2013-06-16 10:02:00,
2013-06-16 05:04:00,58.4,58.4,29.84,North,352,0.0,1.0,100,0.00,,,0.00,Wunderground v.1.15,2013-06-16 10:04:00,
2013-06-16 05:06:00,58.4,58.4,29.84,North,352,0.0,1.0,100,0.00,,,0.00,Wunderground v.1.15,2013-06-16 10:06:00,
2013-06-16 05:08:00,58.4,58.4,29.84,North,352,0.0,1.0,100,0.00,,,0.00,Wunderground v.1.15,2013-06-16 10:08:00,
2013-06-16 05:12:00,58.3,58.3,29.84,North,352,0.0,1.0,100,0.00,,,0.00,Wunderground v.1.15,2013-06-16 10:12:00,
2013-06-16 05:14:00,58.2,58.2,29.84,North,352,0.0,1.0,100,0.00,,,0.00,Wunderground v.1.15,2013-06-16 10:14:00,
2013-06-16 05:18:00,58.1,58.1,29.84,North,352,0.0,1.0,100,0.00,,,0.00,Wunderground v.1.15,2013-06-16 10:18:00,
2013-06-16 05:20:00,58.1,58.1,29.84,North,352,0.0,1.0,100,0.00,,,0.00,Wunderground v.1.15,2013-06-16 10:20:00,
2013-06-16 05:22:00,58.1,58.1,29.84,North,353,0.0,1.0,100,0.00,,,0.00,Wunderground v.1.15,2013-06-16 10:22:00,
2013-06-16 05:24:00,58.1,58.1,29.84,North,352,0.0,1.0,100,0.00,,,0.00,Wunderground v.1.15,2013-06-16 10:24:00,
2013-06-16 05:26:00,58.1,58.1,29.84,North,352,0.0,1.0,100,0.00,,,0.00,Wunderground v.1.15,2013-06-16 10:26:00,
2013-06-16 05:28:00,58.1,58.1,29.84,North,352,0.0,1.0,100,0.00,,,0.00,Wunderground v.1.15,2013-06-16 10:28:00,
2013-06-16 05:30:00,58.1,58.1,29.84,NW,318,0.0,1.0,100,0.00,,,0.00,Wunderground v.1.15,2013-06-16 10:30:00,
2013-06-16 05:32:00,58.1,58.1,29.84,NW,318,0.0,1.0,100,0.00,,,0.00,Wunderground v.1.15,2013-06-16 10:32:00,
2013-06-16 05:34:00,58.0,58.0,29.84,WSW,238,0.0,1.0,100,0.00,,,0.00,Wunderground v.1.15,2013-06-16 10:34:00,
2013-06-16 05:40:00,58.1,58.1,29.85,SW,221,1.0,1.0,100,0.00,,,0.00,Wunderground v.1.15,2013-06-16 10:40:00,
2013-06-16 05:46:00,58.2,58.2,29.85,SW,221,1.0,1.0,100,0.00,,,0.00,Wunderground v.1.15,2013-06-16 10:46:00,
2013-06-16 05:48:00,58.2,58.2,29.85,SW,221,1.0,1.0,100,0.00,,,0.00,Wunderground v.1.15,2013-06-16 10:48:00,
2013-06-16 05:54:00,58.0,58.0,29.85,SW,222,1.0,1.0,100,0.00,,,0.00,Wunderground v.1.15,2013-06-16 10:54:00,
2013-06-16 05:56:00,57.9,57.6,29.85,SW,222,1.0,1.0,99,0.00,,,0.00,Wunderground v.1.15,2013-06-16 10:56:00,
2013-06-16 05:58:00,57.8,57.5,29.85,SW,221,0.0,1.0,99,0.00,,,0.00,Wunderground v.1.15,2013-06-16 10:58:00,
2013-06-16 06:00:00,57.8,57.5,29.85,SW,222,0.0,1.0,99,0.00,,,0.00,Wunderground v.1.15,2013-06-16 11:00:00,
2013-06-16 06:02:00,57.8,57.5,29.85,SW,222,0.0,1.0,99,0.00,,,0.00,Wunderground v.1.15,2013-06-16 11:02:00,
2013-06-16 06:04:00,57.9,57.6,29.85,SW,221,0.0,1.0,99,0.00,,,0.00,Wunderground v.1.15,2013-06-16 11:04:00,
2013-06-16 06:06:00,58.0,57.7,29.85,SW,222,1.0,1.0,99,0.00,,,0.00,Wunderground v.1.15,2013-06-16 11:06:00,
2013-06-16 06:10:00,58.0,57.7,29.85,SW,221,0.0,1.0,99,0.00,,,0.00,Wunderground v.1.15,2013-06-16 11:10:00,
2013-06-16 06:14:00,58.1,57.8,29.85,SW,222,0.0,1.0,99,0.00,,,0.00,Wunderground v.1.15,2013-06-16 11:14:00,
2013-06-16 06:16:00,58.1,57.8,29.85,SW,222,0.0,1.0,99,0.00,,,0.00,Wunderground v.1.15,2013-06-16 11:16:00,
2013-06-16 06:18:00,58.1,57.8,29.85,SW,221,0.0,1.0,99,0.00,,,0.00,Wunderground v.1.15,2013-06-16 11:18:00,
2013-06-16 06:20:00,58.1,57.8,29.85,SW,222,0.0,1.0,99,0.00,,,0.00,Wunderground v.1.15,2013-06-16 11:20:00,
2013-06-16 06:24:00,58.2,57.9,29.85,SW,222,0.0,1.0,99,0.00,,,0.00,Wunderground v.1.15,2013-06-16 11:24:00,
2013-06-16 06:26:00,58.3,58.0,29.85,SW,222,0.0,1.0,99,0.00,,,0.00,Wunderground v.1.15,2013-06-16 11:26:00,
2013-06-16 06:28:00,58.5,58.2,29.85,SW,222,0.0,1.0,99,0.00,,,0.00,Wunderground v.1.15,2013-06-16 11:28:00,
2013-06-16 06:30:00,58.8,58.5,29.85,SW,222,0.0,1.0,99,0.00,,,0.00,Wunderground v.1.15,2013-06-16 11:30:00,
2013-06-16 06:34:00,59.1,58.8,29.85,SW,222,0.0,1.0,99,0.00,,,0.00,Wunderground v.1.15,2013-06-16 11:34:00,
2013-06-16 06:36:00,59.1,58.8,29.85,SW,222,0.0,1.0,99,0.00,,,0.00,Wunderground v.1.15,2013-06-16 11:36:00,
2013-06-16 06:38:00,59.2,58.9,29.85,SW,221,0.0,1.0,99,0.00,,,0.00,Wunderground v.1.15,2013-06-16 11:38:00,
2013-06-16 06:42:00,59.4,58.8,29.85,SW,222,0.0,1.0,98,0.00,,,0.00,Wunderground v.1.15,2013-06-16 11:42:00,
2013-06-16 06:44:00,59.5,59.2,29.85,SW,222,0.0,1.0,99,0.00,,,0.00,Wunderground v.1.15,2013-06-16 11:44:00,
2013-06-16 06:46:00,59.7,59.4,29.85,SW,221,0.0,1.0,99,0.00,,,0.00,Wunderground v.1.15,2013-06-16 11:46:00,
2013-06-16 06:52:00,60.6,60.3,29.85,SW,222,0.0,1.0,99,0.00,,,0.00,Wunderground v.1.15,2013-06-16 11:52:00,
2013-06-16 06:56:00,61.0,60.4,29.85,SW,221,0.0,1.0,98,0.00,,,0.00,Wunderground v.1.15,2013-06-16 11:56:00,
2013-06-16 07:00:00,61.2,60.6,29.85,SW,222,0.0,1.0,98,0.00,,,0.00,Wunderground v.1.15,2013-06-16 12:00:00,
2013-06-16 07:04:00,61.4,60.5,29.85,SW,222,0.0,1.0,97,0.00,,,0.00,Wunderground v.1.15,2013-06-16 12:04:00,
2013-06-16 07:06:00,61.5,60.6,29.85,SW,222,0.0,1.0,97,0.00,,,0.00,Wunderground v.1.15,2013-06-16 12:06:00,
2013-06-16 07:10:00,61.8,60.9,29.85,SW,222,0.0,1.0,97,0.00,,,0.00,Wunderground v.1.15,2013-06-16 12:10:00,
2013-06-16 07:12:00,62.0,60.8,29.85,SW,222,0.0,1.0,96,0.00,,,0.00,Wunderground v.1.15,2013-06-16 12:12:00,
2013-06-16 07:18:00,62.9,61.7,29.85,SW,222,0.0,1.0,96,0.00,,,0.00,Wunderground v.1.15,2013-06-16 12:18:00,
2013-06-16 07:20:00,63.2,62.0,29.85,SW,222,0.0,1.0,96,0.00,,,0.00,Wunderground v.1.15,2013-06-16 12:20:00,
2013-06-16 07:24:00,63.6,61.8,29.85,SW,222,0.0,1.0,94,0.00,,,0.00,Wunderground v.1.15,2013-06-16 12:24:00,
2013-06-16 07:26:00,63.8,61.7,29.85,SW,222,0.0,1.0,93,0.00,,,0.00,Wunderground v.1.15,2013-06-16 12:26:00,
2013-06-16 07:28:00,64.2,62.1,29.85,SW,222,0.0,1.0,93,0.00,,,0.00,Wunderground v.1.15,2013-06-16 12:28:00,
2013-06-16 07:30:00,64.6,62.5,29.85,SW,223,0.0,1.0,93,0.00,,,0.00,Wunderground v.1.15,2013-06-16 12:30:00,
2013-06-16 07:32:00,65.2,63.4,29.85,SW,222,0.0,1.0,94,0.00,,,0.00,Wunderground v.1.15,2013-06-16 12:32:00,
2013-06-16 07:36:00,65.6,62.6,29.85,SW,222,0.0,1.0,90,0.00,,,0.00,Wunderground v.1.15,2013-06-16 12:36:00,
2013-06-16 07:38:00,65.8,62.5,29.85,SW,222,0.0,1.0,89,0.00,,,0.00,Wunderground v.1.15,2013-06-16 12:38:00,
2013-06-16 07:44:00,66.1,62.1,29.86,SW,222,0.0,1.0,87,0.00,,,0.00,Wunderground v.1.15,2013-06-16 12:44:00,
2013-06-16 07:46:00,66.2,62.2,29.85,SW,222,0.0,1.0,87,0.00,,,0.01,Wunderground v.1.15,2013-06-16 12:46:00,
2013-06-16 07:50:00,66.4,62.1,29.85,SW,222,0.0,1.0,86,0.00,,,0.01,Wunderground v.1.15,2013-06-16 12:50:00,
2013-06-16 07:52:00,66.6,62.3,29.85,SW,222,0.0,1.0,86,0.00,,,0.01,Wunderground v.1.15,2013-06-16 12:52:00,
2013-06-16 07:54:00,66.9,62.6,29.85,SW,222,0.0,1.0,86,0.00,,,0.01,Wunderground v.1.15,2013-06-16 12:54:00,
2013-06-16 07:56:00,67.0,62.0,29.85,SW,223,0.0,1.0,84,0.00,,,0.01,Wunderground v.1.15,2013-06-16 12:56:00,
2013-06-16 07:58:00,67.2,62.2,29.85,SW,222,0.0,1.0,84,0.00,,,0.01,Wunderground v.1.15,2013-06-16 12:58:00,
2013-06-16 08:00:00,67.4,62.7,29.85,SW,222,0.0,1.0,85,0.00,,,0.01,Wunderground v.1.15,2013-06-16 13:00:00,
2013-06-16 08:04:00,67.7,61.7,29.85,SW,229,0.0,1.0,81,0.00,,,0.01,Wunderground v.1.15,2013-06-16 13:04:00,
2013-06-16 08:08:00,68.1,62.0,29.85,SW,231,0.0,1.0,81,0.00,,,0.01,Wunderground v.1.15,2013-06-16 13:08:00,
2013-06-16 08:10:00,68.3,61.5,29.85,WSW,255,0.0,1.0,79,0.00,,,0.01,Wunderground v.1.15,2013-06-16 13:10:00,
2013-06-16 08:16:00,69.0,62.2,29.86,SW,228,1.0,1.0,79,0.00,,,0.01,Wunderground v.1.15,2013-06-16 13:16:00,
2013-06-16 08:22:00,69.4,61.1,29.86,SW,232,1.0,1.0,75,0.00,,,0.01,Wunderground v.1.15,2013-06-16 13:22:00,
2013-06-16 08:24:00,69.5,60.8,29.86,SW,221,1.0,1.0,74,0.00,,,0.01,Wunderground v.1.15,2013-06-16 13:24:00,
2013-06-16 08:26:00,69.5,62.0,29.86,WSW,252,1.0,2.0,77,0.00,,,0.01,Wunderground v.1.15,2013-06-16 13:26:00,
2013-06-16 08:28:00,69.6,60.6,29.86,WSW,243,1.0,2.0,73,0.00,,,0.01,Wunderground v.1.15,2013-06-16 13:28:00,
2013-06-16 08:30:00,69.7,62.2,29.86,SW,232,1.0,1.0,77,0.00,,,0.01,Wunderground v.1.15,2013-06-16 13:30:00,
2013-06-16 08:32:00,69.9,62.0,29.86,SW,224,1.0,1.0,76,0.00,,,0.01,Wunderground v.1.15,2013-06-16 13:32:00,
2013-06-16 08:34:00,70.2,62.6,29.86,SW,224,1.0,2.0,77,0.00,,,0.01,Wunderground v.1.15,2013-06-16 13:34:00,
2013-06-16 08:38:00,70.8,62.9,29.86,SSW,212,1.0,2.0,76,0.00,,,0.01,Wunderground v.1.15,2013-06-16 13:38:00,
2013-06-16 08:40:00,71.0,63.4,29.86,SW,232,1.0,2.0,77,0.00,,,0.01,Wunderground v.1.15,2013-06-16 13:40:00,
2013-06-16 08:42:00,71.2,63.2,29.86,SSW,210,1.0,2.0,76,0.00,,,0.01,Wunderground v.1.15,2013-06-16 13:42:00,
2013-06-16 08:48:00,71.8,61.1,29.86,WNW,284,2.0,2.0,69,0.00,,,0.01,Wunderground v.1.15,2013-06-16 13:48:00,
2013-06-16 08:52:00,72.1,61.8,29.86,WNW,285,2.0,2.0,70,0.00,,,0.01,Wunderground v.1.15,2013-06-16 13:52:00,
2013-06-16 08:54:00,72.3,62.0,29.86,WNW,284,2.0,3.0,70,0.00,,,0.01,Wunderground v.1.15,2013-06-16 13:54:00,
2013-06-16 09:00:00,72.6,60.6,29.86,NW,326,2.0,2.0,66,0.00,,,0.01,Wunderground v.1.15,2013-06-16 14:00:00,
2013-06-16 09:06:00,73.3,60.4,29.86,NNE,20,2.0,2.0,64,0.00,,,0.01,Wunderground v.1.15,2013-06-16 14:06:00,
2013-06-16 09:08:00,73.7,61.6,29.86,NNW,337,2.0,2.0,66,0.00,,,0.01,Wunderground v.1.15,2013-06-16 14:08:00,
2013-06-16 09:10:00,73.9,61.0,29.86,NW,321,2.0,3.0,64,0.00,,,0.01,Wunderground v.1.15,2013-06-16 14:10:00,
2013-06-16 09:12:00,74.1,62.4,29.86,NNE,16,2.0,4.0,67,0.00,,,0.01,Wunderground v.1.15,2013-06-16 14:12:00,
2013-06-16 09:14:00,74.3,61.3,29.86,NNW,328,2.0,4.0,64,0.00,,,0.01,Wunderground v.1.15,2013-06-16 14:14:00,
2013-06-16 09:16:00,74.3,60.0,29.86,NW,308,2.0,4.0,61,0.00,,,0.01,Wunderground v.1.15,2013-06-16 14:16:00,
2013-06-16 09:18:00,74.4,61.4,29.86,NNE,25,2.0,4.0,64,0.00,,,0.01,Wunderground v.1.15,2013-06-16 14:18:00,
2013-06-16 09:22:00,74.4,61.4,29.85,North,349,3.0,4.0,64,0.00,,,0.01,Wunderground v.1.15,2013-06-16 14:22:00,
2013-06-16 09:26:00,74.5,61.5,29.85,NNW,340,3.0,4.0,64,0.00,,,0.01,Wunderground v.1.15,2013-06-16 14:26:00,
2013-06-16 09:32:00,74.8,62.2,29.86,NNE,15,3.0,4.0,65,0.00,,,0.01,Wunderground v.1.15,2013-06-16 14:32:00,
2013-06-16 09:34:00,74.9,61.9,29.85,NW,323,3.0,4.0,64,0.00,,,0.01,Wunderground v.1.15,2013-06-16 14:34:00,
2013-06-16 09:38:00,75.2,62.2,29.86,North,356,3.0,4.0,64,0.00,,,0.01,Wunderground v.1.15,2013-06-16 14:38:00,
2013-06-16 09:40:00,75.4,61.5,29.86,North,356,3.0,3.0,62,0.00,,,0.01,Wunderground v.1.15,2013-06-16 14:40:00,
2013-06-16 09:42:00,75.6,60.7,29.85,NW,319,3.0,3.0,60,0.00,,,0.01,Wunderground v.1.15,2013-06-16 14:42:00,
2013-06-16 09:44:00,75.9,60.1,29.86,NNW,345,3.0,3.0,58,0.00,,,0.01,Wunderground v.1.15,2013-06-16 14:44:00,
2013-06-16 09:46:00,76.1,61.2,29.86,NNE,18,3.0,3.0,60,0.00,,,0.01,Wunderground v.1.15,2013-06-16 14:46:00,
2013-06-16 09:50:00,76.5,59.6,29.86,WNW,302,3.0,4.0,56,0.00,,,0.01,Wunderground v.1.15,2013-06-16 14:50:00,
2013-06-16 09:52:00,76.5,57.0,29.86,WNW,293,3.0,4.0,51,0.00,,,0.01,Wunderground v.1.15,2013-06-16 14:52:00,
2013-06-16 09:56:00,76.9,58.5,29.86,NW,323,3.0,4.0,53,0.00,,,0.01,Wunderground v.1.15,2013-06-16 14:56:00,
2013-06-16 09:58:00,77.0,55.8,29.86,WNW,294,3.0,4.0,48,0.00,,,0.01,Wunderground v.1.15,2013-06-16 14:58:00,
2013-06-16 10:00:00,77.0,56.9,29.86,NNW,336,3.0,3.0,50,0.00,,,0.01,Wunderground v.1.15,2013-06-16 15:00:00,
2013-06-16 10:02:00,77.0,57.5,29.86,WNW,302,3.0,4.0,51,0.00,,,0.01,Wunderground v.1.15,2013-06-16 15:02:00,
2013-06-16 10:06:00,77.4,57.3,29.86,NW,316,3.0,4.0,50,0.00,,,0.01,Wunderground v.1.15,2013-06-16 15:06:00,
2013-06-16 10:10:00,77.6,56.9,29.85,North,1,3.0,3.0,49,0.00,,,0.01,Wunderground v.1.15,2013-06-16 15:10:00,
2013-06-16 10:12:00,77.8,57.1,29.85,NW,322,3.0,3.0,49,0.00,,,0.01,Wunderground v.1.15,2013-06-16 15:12:00,
2013-06-16 10:18:00,77.9,56.0,29.85,North,353,3.0,4.0,47,0.00,,,0.01,Wunderground v.1.15,2013-06-16 15:18:00,
2013-06-16 10:20:00,78.2,57.5,29.85,NW,321,3.0,3.0,49,0.00,,,0.01,Wunderground v.1.15,2013-06-16 15:20:00,
2013-06-16 10:24:00,78.4,55.3,29.85,WNW,293,2.0,3.0,45,0.00,,,0.01,Wunderground v.1.15,2013-06-16 15:24:00,
2013-06-16 10:26:00,78.3,55.2,29.85,NW,316,2.0,4.0,45,0.00,,,0.01,Wunderground v.1.15,2013-06-16 15:26:00,
2013-06-16 10:28:00,78.3,55.8,29.85,West,259,2.0,4.0,46,0.00,,,0.01,Wunderground v.1.15,2013-06-16 15:28:00,
2013-06-16 10:30:00,78.3,55.2,29.85,WNW,285,3.0,3.0,45,0.00,,,0.01,Wunderground v.1.15,2013-06-16 15:30:00,
2013-06-16 10:32:00,78.4,57.7,29.85,WNW,294,3.0,3.0,49,0.00,,,0.01,Wunderground v.1.15,2013-06-16 15:32:00,
2013-06-16 10:36:00,78.6,56.7,29.85,NNW,345,3.0,6.0,47,0.00,,,0.01,Wunderground v.1.15,2013-06-16 15:36:00,
2013-06-16 10:38:00,78.8,55.0,29.85,NW,323,3.0,6.0,44,0.00,,,0.01,Wunderground v.1.15,2013-06-16 15:38:00,
2013-06-16 10:40:00,78.8,55.0,29.85,WNW,290,3.0,4.0,44,0.00,,,0.01,Wunderground v.1.15,2013-06-16 15:40:00,
2013-06-16 10:42:00,78.8,54.4,29.85,WNW,295,3.0,4.0,43,0.00,,,0.01,Wunderground v.1.15,2013-06-16 15:42:00,
2013-06-16 10:46:00,79.1,54.0,29.85,North,360,3.0,6.0,42,0.00,,,0.01,Wunderground v.1.15,2013-06-16 15:46:00,
2013-06-16 10:48:00,79.2,53.5,29.85,WNW,290,4.0,6.0,41,0.00,,,0.01,Wunderground v.1.15,2013-06-16 15:48:00,
2013-06-16 10:52:00,79.6,55.8,29.85,NNW,330,4.0,4.0,44,0.00,,,0.01,Wunderground v.1.15,2013-06-16 15:52:00,
2013-06-16 10:54:00,79.7,54.6,29.85,NNW,347,4.0,4.0,42,0.00,,,0.01,Wunderground v.1.15,2013-06-16 15:54:00,
2013-06-16 10:56:00,79.7,51.1,29.85,WSW,252,4.0,5.0,37,0.00,,,0.01,Wunderground v.1.15,2013-06-16 15:56:00,
2013-06-16 10:58:00,79.7,51.1,29.85,NW,311,4.0,5.0,37,0.00,,,0.01,Wunderground v.1.15,2013-06-16 15:58:00,
2013-06-16 11:00:00,79.7,51.8,29.85,NNW,342,4.0,4.0,38,0.00,,,0.01,Wunderground v.1.15,2013-06-16 16:00:00,
2013-06-16 11:04:00,79.8,54.7,29.86,NW,319,4.0,4.0,42,0.00,,,0.01,Wunderground v.1.15,2013-06-16 16:04:00,
2013-06-16 11:08:00,80.1,54.3,29.86,NW,319,4.0,7.0,41,0.00,,,0.01,Wunderground v.1.15,2013-06-16 16:08:00,
2013-06-16 11:12:00,80.3,53.8,29.86,NW,319,4.0,4.0,40,0.00,,,0.01,Wunderground v.1.15,2013-06-16 16:12:00,
2013-06-16 11:14:00,80.4,52.5,29.86,WNW,294,4.0,4.0,38,0.00,,,0.01,Wunderground v.1.15,2013-06-16 16:14:00,
2013-06-16 11:18:00,80.7,52.7,29.86,NNW,328,4.0,7.0,38,0.00,,,0.01,Wunderground v.1.15,2013-06-16 16:18:00,
2013-06-16 11:20:00,80.7,51.3,29.86,WNW,302,4.0,5.0,36,0.00,,,0.01,Wunderground v.1.15,2013-06-16 16:20:00,
2013-06-16 11:22:00,80.7,50.5,29.86,WNW,284,4.0,5.0,35,0.00,,,0.01,Wunderground v.1.15,2013-06-16 16:22:00,
2013-06-16 11:24:00,80.5,51.8,29.86,NW,308,4.0,5.0,37,0.00,,,0.01,Wunderground v.1.15,2013-06-16 16:24:00,
2013-06-16 11:26:00,80.5,50.3,29.86,NW,315,4.0,5.0,35,0.00,,,0.01,Wunderground v.1.15,2013-06-16 16:26:00,
2013-06-16 11:28:00,80.6,51.2,29.86,NW,321,4.0,5.0,36,0.00,,,0.01,Wunderground v.1.15,2013-06-16 16:28:00,
2013-06-16 11:30:00,80.7,51.3,29.86,North,350,4.0,4.0,36,0.00,,,0.01,Wunderground v.1.15,2013-06-16 16:30:00,
2013-06-16 11:32:00,80.9,52.9,29.86,WNW,299,4.0,5.0,38,0.00,,,0.01,Wunderground v.1.15,2013-06-16 16:32:00,
2013-06-16 11:36:00,81.1,50.9,29.86,SW,236,4.0,5.0,35,0.00,,,0.01,Wunderground v.1.15,2013-06-16 16:36:00,
2013-06-16 11:38:00,81.2,53.2,29.86,NW,318,3.0,5.0,38,0.00,,,0.01,Wunderground v.1.15,2013-06-16 16:38:00,
2013-06-16 11:42:00,81.4,50.3,29.86,NW,316,4.0,5.0,34,0.00,,,0.01,Wunderground v.1.15,2013-06-16 16:42:00,
2013-06-16 11:46:00,81.4,52.6,29.85,NNE,25,4.0,6.0,37,0.00,,,0.01,Wunderground v.1.15,2013-06-16 16:46:00,
2013-06-16 11:48:00,81.5,54.8,29.85,NW,313,5.0,6.0,40,0.00,,,0.01,Wunderground v.1.15,2013-06-16 16:48:00,
2013-06-16 11:54:00,81.5,50.4,29.86,NW,315,4.0,6.0,34,0.00,,,0.01,Wunderground v.1.15,2013-06-16 16:54:00,
2013-06-16 11:56:00,81.7,55.0,29.86,North,359,4.0,7.0,40,0.00,,,0.01,Wunderground v.1.15,2013-06-16 16:56:00,
2013-06-16 11:58:00,81.8,53.7,29.86,NNW,328,4.0,7.0,38,0.00,,,0.01,Wunderground v.1.15,2013-06-16 16:58:00,
2013-06-16 12:00:00,81.8,53.0,29.86,NNW,345,4.0,4.0,37,0.00,,,0.01,Wunderground v.1.15,2013-06-16 17:00:00,
2013-06-16 12:02:00,81.8,53.0,29.86,NW,318,4.0,5.0,37,0.00,,,0.01,Wunderground v.1.15,2013-06-16 17:02:00,
2013-06-16 12:04:00,81.7,52.1,29.86,WNW,302,4.0,6.0,36,0.00,,,0.01,Wunderground v.1.15,2013-06-16 17:04:00,
2013-06-16 12:08:00,81.9,53.8,29.86,North,5,4.0,8.0,38,0.00,,,0.01,Wunderground v.1.15,2013-06-16 17:08:00,
2013-06-16 12:10:00,82.2,51.8,29.86,NW,317,4.0,6.0,35,0.00,,,0.01,Wunderground v.1.15,2013-06-16 17:10:00,
2013-06-16 12:12:00,82.2,52.6,29.86,West,274,5.0,6.0,36,0.00,,,0.01,Wunderground v.1.15,2013-06-16 17:12:00,
2013-06-16 12:14:00,82.2,53.3,29.86,West,268,5.0,6.0,37,0.00,,,0.01,Wunderground v.1.15,2013-06-16 17:14:00,
2013-06-16 12:16:00,82.1,54.0,29.86,West,274,5.0,6.0,38,0.00,,,0.01,Wunderground v.1.15,2013-06-16 17:16:00,
2013-06-16 12:20:00,82.2,51.0,29.85,NW,314,4.0,4.0,34,0.00,,,0.01,Wunderground v.1.15,2013-06-16 17:20:00,
2013-06-16 12:22:00,82.2,50.2,29.86,NNW,335,4.0,5.0,33,0.00,,,0.01,Wunderground v.1.15,2013-06-16 17:22:00,
2013-06-16 12:26:00,82.2,51.8,29.85,North,8,3.0,7.0,35,0.00,,,0.01,Wunderground v.1.15,2013-06-16 17:26:00,
2013-06-16 12:28:00,82.2,53.3,29.85,North,3,3.0,7.0,37,0.00,,,0.01,Wunderground v.1.15,2013-06-16 17:28:00,
2013-06-16 12:30:00,82.3,50.3,29.85,NNW,334,4.0,4.0,33,0.00,,,0.01,Wunderground v.1.15,2013-06-16 17:30:00,
2013-06-16 12:32:00,82.4,52.8,29.85,NW,312,4.0,4.0,36,0.00,,,0.01,Wunderground v.1.15,2013-06-16 17:32:00,
2013-06-16 12:34:00,82.5,49.7,29.85,NW,321,4.0,4.0,32,0.00,,,0.01,Wunderground v.1.15,2013-06-16 17:34:00,
2013-06-16 12:36:00,82.5,51.3,29.85,NW,323,4.0,4.0,34,0.00,,,0.01,Wunderground v.1.15,2013-06-16 17:36:00,
2013-06-16 12:38:00,82.4,49.6,29.85,NNW,339,4.0,4.0,32,0.00,,,0.01,Wunderground v.1.15,2013-06-16 17:38:00,
2013-06-16 12:40:00,82.5,50.5,29.85,NNE,16,4.0,4.0,33,0.00,,,0.01,Wunderground v.1.15,2013-06-16 17:40:00,
2013-06-16 12:44:00,82.6,48.9,29.85,NNE,19,4.0,4.0,31,0.00,,,0.01,Wunderground v.1.15,2013-06-16 17:44:00,
2013-06-16 12:46:00,82.6,52.9,29.85,NNW,348,4.0,4.0,36,0.00,,,0.01,Wunderground v.1.15,2013-06-16 17:46:00,
2013-06-16 12:48:00,82.6,49.7,29.85,NNE,25,3.0,4.0,32,0.00,,,0.01,Wunderground v.1.15,2013-06-16 17:48:00,
2013-06-16 12:50:00,82.6,53.7,29.85,NNW,337,3.0,5.0,37,0.00,,,0.01,Wunderground v.1.15,2013-06-16 17:50:00,
2013-06-16 12:52:00,82.7,53.0,29.86,NW,321,3.0,5.0,36,0.00,,,0.01,Wunderground v.1.15,2013-06-16 17:52:00,
2013-06-16 12:54:00,82.6,49.7,29.86,NE,39,3.0,5.0,32,0.00,,,0.01,Wunderground v.1.15,2013-06-16 17:54:00,
2013-06-16 13:00:00,82.6,52.9,29.86,NNE,22,3.0,3.0,36,0.00,,,0.01,Wunderground v.1.15,2013-06-16 18:00:00,
2013-06-16 13:02:00,82.5,52.1,29.86,East,95,3.0,9.0,35,0.00,,,0.01,Wunderground v.1.15,2013-06-16 18:02:00,
2013-06-16 13:06:00,82.7,53.8,29.86,NNW,328,2.0,9.0,37,0.00,,,0.01,Wunderground v.1.15,2013-06-16 18:06:00,
2013-06-16 13:12:00,82.8,51.6,29.85,NE,41,3.0,9.0,34,0.00,,,0.01,Wunderground v.1.15,2013-06-16 18:12:00,
2013-06-16 13:14:00,82.7,49.8,29.85,ENE,58,3.0,9.0,32,0.00,,,0.01,Wunderground v.1.15,2013-06-16 18:14:00,
2013-06-16 13:16:00,82.6,53.7,29.85,NW,318,3.0,9.0,37,0.00,,,0.01,Wunderground v.1.15,2013-06-16 18:16:00,
2013-06-16 13:20:00,83.0,52.5,29.85,SSW,198,2.0,2.0,35,0.00,,,0.01,Wunderground v.1.15,2013-06-16 18:20:00,
2013-06-16 13:22:00,83.3,50.4,29.85,SW,232,1.0,9.0,32,0.00,,,0.01,Wunderground v.1.15,2013-06-16 18:22:00,
2013-06-16 13:26:00,83.5,50.5,29.85,SW,231,1.0,9.0,32,0.00,,,0.01,Wunderground v.1.15,2013-06-16 18:26:00,
2013-06-16 13:28:00,83.5,51.4,29.85,East,87,1.0,9.0,33,0.00,,,0.01,Wunderground v.1.15,2013-06-16 18:28:00,
2013-06-16 13:32:00,83.6,54.6,29.84,NNE,27,1.0,9.0,37,0.00,,,0.01,Wunderground v.1.15,2013-06-16 18:32:00,
2013-06-16 13:34:00,83.4,53.6,29.84,NNW,328,2.0,9.0,36,0.00,,,0.01,Wunderground v.1.15,2013-06-16 18:34:00,
2013-06-16 13:40:00,83.5,54.5,29.85,NW,305,2.0,9.0,37,0.00,,,0.01,Wunderground v.1.15,2013-06-16 18:40:00,
2013-06-16 13:46:00,83.7,48.1,29.85,WNW,294,4.0,9.0,29,0.00,,,0.01,Wunderground v.1.15,2013-06-16 18:46:00,
2013-06-16 13:48:00,83.7,49.0,29.85,NNW,330,4.0,9.0,30,0.00,,,0.01,Wunderground v.1.15,2013-06-16 18:48:00,
2013-06-16 13:52:00,83.7,48.1,29.85,ESE,110,3.0,9.0,29,0.00,,,0.01,Wunderground v.1.15,2013-06-16 18:52:00,
2013-06-16 13:54:00,83.8,49.9,29.85,ENE,73,2.0,9.0,31,0.00,,,0.01,Wunderground v.1.15,2013-06-16 18:54:00,
2013-06-16 13:56:00,83.9,54.1,29.85,NE,35,1.0,9.0,36,0.00,,,0.01,Wunderground v.1.15,2013-06-16 18:56:00,
2013-06-16 13:58:00,83.9,51.7,29.85,North,1,1.0,9.0,33,0.00,,,0.01,Wunderground v.1.15,2013-06-16 18:58:00,
2013-06-16 14:02:00,84.3,48.6,29.85,WNW,289,3.0,9.0,29,0.00,,,0.01,Wunderground v.1.15,2013-06-16 19:02:00,
2013-06-16 14:04:00,84.2,50.3,29.85,NNW,336,3.0,9.0,31,0.00,,,0.01,Wunderground v.1.15,2013-06-16 19:04:00,
2013-06-16 14:06:00,84.3,52.1,29.85,NW,314,3.0,9.0,33,0.00,,,0.01,Wunderground v.1.15,2013-06-16 19:06:00,
2013-06-16 14:08:00,84.5,52.2,29.85,West,264,3.0,9.0,33,0.00,,,0.01,Wunderground v.1.15,2013-06-16 19:08:00,
2013-06-16 14:12:00,84.7,52.4,29.85,NW,322,3.0,9.0,33,0.00,,,0.01,Wunderground v.1.15,2013-06-16 19:12:00,
2013-06-16 14:16:00,84.6,48.8,29.85,North,358,4.0,9.0,29,0.00,,,0.01,Wunderground v.1.15,2013-06-16 19:16:00,
2013-06-16 14:18:00,84.6,52.3,29.85,NNW,336,4.0,9.0,33,0.00,,,0.01,Wunderground v.1.15,2013-06-16 19:18:00,
2013-06-16 14:20:00,84.6,52.3,29.85,North,349,3.0,9.0,33,0.00,,,0.01,Wunderground v.1.15,2013-06-16 19:20:00,
2013-06-16 14:26:00,84.6,53.1,29.86,WNW,299,2.0,9.0,34,0.00,,,0.01,Wunderground v.1.15,2013-06-16 19:26:00,
2013-06-16 14:28:00,84.6,53.1,29.86,WNW,288,2.0,9.0,34,0.00,,,0.01,Wunderground v.1.15,2013-06-16 19:28:00,
2013-06-16 14:32:00,84.8,51.7,29.85,NNW,340,3.0,9.0,32,0.00,,,0.01,Wunderground v.1.15,2013-06-16 19:32:00,
2013-06-16 14:36:00,85.0,51.8,29.85,NW,305,3.0,9.0,32,0.00,,,0.01,Wunderground v.1.15,2013-06-16 19:36:00,
2013-06-16 14:38:00,84.9,50.0,29.85,NNW,338,4.0,9.0,30,0.00,,,0.01,Wunderground v.1.15,2013-06-16 19:38:00,
2013-06-16 14:40:00,85.0,54.3,29.85,WSW,255,3.0,9.0,35,0.00,,,0.01,Wunderground v.1.15,2013-06-16 19:40:00,
2013-06-16 14:44:00,85.2,55.2,29.85,West,270,5.0,9.0,36,0.00,,,0.01,Wunderground v.1.15,2013-06-16 19:44:00,
2013-06-16 14:46:00,85.2,52.8,29.85,West,274,5.0,9.0,33,0.00,,,0.01,Wunderground v.1.15,2013-06-16 19:46:00,
2013-06-16 14:50:00,85.0,55.8,29.85,WSW,258,6.0,6.0,37,0.00,,,0.01,Wunderground v.1.15,2013-06-16 19:50:00,
2013-06-16 14:52:00,84.9,55.0,29.85,WSW,256,6.0,9.0,36,0.00,,,0.01,Wunderground v.1.15,2013-06-16 19:52:00,
2013-06-16 14:56:00,84.7,52.4,29.85,SW,235,5.0,9.0,33,0.00,,,0.01,Wunderground v.1.15,2013-06-16 19:56:00,
2013-06-16 14:58:00,84.6,50.6,29.85,SW,221,5.0,9.0,31,0.00,,,0.01,Wunderground v.1.15,2013-06-16 19:58:00,
2013-06-16 15:00:00,84.6,52.3,29.84,WSW,238,5.0,9.0,33,0.00,,,0.01,Wunderground v.1.15,2013-06-16 20:00:00,
2013-06-16 15:06:00,84.3,49.5,29.84,West,277,6.0,9.0,30,0.00,,,0.01,Wunderground v.1.15,2013-06-16 20:06:00,
2013-06-16 15:10:00,84.3,51.2,29.84,WNW,293,5.0,5.0,32,0.00,,,0.01,Wunderground v.1.15,2013-06-16 20:10:00,
2013-06-16 15:12:00,84.5,53.0,29.84,WNW,284,4.0,9.0,34,0.00,,,0.01,Wunderground v.1.15,2013-06-16 20:12:00,
2013-06-16 15:14:00,84.8,54.1,29.84,WNW,297,4.0,9.0,35,0.00,,,0.01,Wunderground v.1.15,2013-06-16 20:14:00,
2013-06-16 15:16:00,85.2,51.1,29.84,SW,228,4.0,9.0,31,0.00,,,0.01,Wunderground v.1.15,2013-06-16 20:16:00,
2013-06-16 15:18:00,85.1,49.3,29.84,SSW,212,4.0,9.0,29,0.00,,,0.01,Wunderground v.1.15,2013-06-16 20:18:00,
2013-06-16 15:22:00,84.5,51.4,29.84,West,263,5.0,9.0,32,0.00,,,0.01,Wunderground v.1.15,2013-06-16 20:22:00,
2013-06-16 15:24:00,84.5,53.0,29.84,SW,222,5.0,9.0,34,0.00,,,0.01,Wunderground v.1.15,2013-06-16 20:24:00,
2013-06-16 15:26:00,84.6,53.1,29.84,West,262,5.0,9.0,34,0.00,,,0.01,Wunderground v.1.15,2013-06-16 20:26:00,
2013-06-16 15:28:00,84.6,51.5,29.84,West,271,5.0,9.0,32,0.00,,,0.01,Wunderground v.1.15,2013-06-16 20:28:00,
2013-06-16 15:32:00,84.5,52.2,29.84,West,281,6.0,6.0,33,0.00,,,0.01,Wunderground v.1.15,2013-06-16 20:32:00,
2013-06-16 15:34:00,84.5,52.2,29.83,NW,311,6.0,9.0,33,0.00,,,0.01,Wunderground v.1.15,2013-06-16 20:34:00,
2013-06-16 15:38:00,84.4,51.3,29.83,North,349,5.0,9.0,32,0.00,,,0.01,Wunderground v.1.15,2013-06-16 20:38:00,
2013-06-16 15:40:00,84.4,52.1,29.83,NNW,342,4.0,4.0,33,0.00,,,0.01,Wunderground v.1.15,2013-06-16 20:40:00,
2013-06-16 15:42:00,84.3,50.4,29.83,NNW,342,3.0,9.0,31,0.00,,,0.01,Wunderground v.1.15,2013-06-16 20:42:00,
2013-06-16 15:44:00,84.3,49.5,29.83,NNW,342,2.0,9.0,30,0.00,,,0.01,Wunderground v.1.15,2013-06-16 20:44:00,
2013-06-16 15:48:00,84.4,51.3,29.83,SW,224,2.0,9.0,32,0.00,,,0.01,Wunderground v.1.15,2013-06-16 20:48:00,
2013-06-16 15:52:00,84.5,51.4,29.83,WNW,292,1.0,3.0,32,0.00,,,0.01,Wunderground v.1.15,2013-06-16 20:52:00,
2013-06-16 15:54:00,84.5,50.5,29.83,West,275,2.0,9.0,31,0.00,,,0.01,Wunderground v.1.15,2013-06-16 20:54:00,
2013-06-16 15:56:00,84.5,53.0,29.83,West,268,2.0,9.0,34,0.00,,,0.01,Wunderground v.1.15,2013-06-16 20:56:00,
2013-06-16 15:58:00,84.5,53.0,29.83,WNW,295,3.0,9.0,34,0.00,,,0.01,Wunderground v.1.15,2013-06-16 20:58:00,
2013-06-16 16:02:00,84.4,50.5,29.83,West,262,3.0,9.0,31,0.00,,,0.01,Wunderground v.1.15,2013-06-16 21:02:00,
2013-06-16 16:06:00,84.3,51.2,29.83,WNW,297,4.0,9.0,32,0.00,,,0.01,Wunderground v.1.15,2013-06-16 21:06:00,
2013-06-16 16:08:00,84.2,52.8,29.83,West,262,5.0,9.0,34,0.00,,,0.01,Wunderground v.1.15,2013-06-16 21:08:00,
2013-06-16 16:12:00,83.9,50.0,29.83,WNW,290,6.0,6.0,31,0.00,,,0.01,Wunderground v.1.15,2013-06-16 21:12:00,
2013-06-16 16:14:00,83.8,49.9,29.83,WSW,242,6.0,9.0,31,0.00,,,0.01,Wunderground v.1.15,2013-06-16 21:14:00,
2013-06-16 16:16:00,83.8,53.2,29.83,West,266,5.0,9.0,35,0.00,,,0.01,Wunderground v.1.15,2013-06-16 21:16:00,
2013-06-16 16:18:00,83.8,52.4,29.83,NW,308,5.0,9.0,34,0.00,,,0.01,Wunderground v.1.15,2013-06-16 21:18:00,
2013-06-16 16:22:00,83.6,54.6,29.83,West,281,5.0,9.0,37,0.00,,,0.01,Wunderground v.1.15,2013-06-16 21:22:00,
2013-06-16 16:24:00,83.5,52.2,29.83,West,264,5.0,9.0,34,0.00,,,0.01,Wunderground v.1.15,2013-06-16 21:24:00,
2013-06-16 16:28:00,83.3,53.6,29.83,WSW,257,5.0,9.0,36,0.00,,,0.01,Wunderground v.1.15,2013-06-16 21:28:00,
2013-06-16 16:30:00,83.2,51.9,29.83,WSW,254,5.0,9.0,34,0.00,,,0.01,Wunderground v.1.15,2013-06-16 21:30:00,
2013-06-16 16:32:00,83.1,53.4,29.83,SW,235,5.0,9.0,36,0.00,,,0.01,Wunderground v.1.15,2013-06-16 21:32:00,
2013-06-16 16:34:00,82.9,52.4,29.83,SW,218,5.0,9.0,35,0.00,,,0.01,Wunderground v.1.15,2013-06-16 21:34:00,
2013-06-16 16:38:00,82.7,53.8,29.83,WSW,250,6.0,9.0,37,0.00,,,0.01,Wunderground v.1.15,2013-06-16 21:38:00,
2013-06-16 16:40:00,82.5,52.9,29.83,SW,236,6.0,9.0,36,0.00,,,0.01,Wunderground v.1.15,2013-06-16 21:40:00,
2013-06-16 16:42:00,82.3,54.2,29.83,West,259,6.0,9.0,38,0.00,,,0.01,Wunderground v.1.15,2013-06-16 21:42:00,
2013-06-16 16:46:00,82.1,54.0,29.83,WSW,256,7.0,9.0,38,0.00,,,0.01,Wunderground v.1.15,2013-06-16 21:46:00,
2013-06-16 16:48:00,81.9,51.6,29.83,WSW,243,7.0,9.0,35,0.00,,,0.01,Wunderground v.1.15,2013-06-16 21:48:00,
2013-06-16 16:50:00,81.8,53.0,29.83,WSW,238,7.0,10.0,37,0.00,,,0.01,Wunderground v.1.15,2013-06-16 21:50:00,
2013-06-16 16:56:00,81.5,54.2,29.83,SW,233,7.0,10.0,39,0.00,,,0.01,Wunderground v.1.15,2013-06-16 21:56:00,
2013-06-16 16:58:00,81.4,53.4,29.83,SW,236,7.0,10.0,38,0.00,,,0.01,Wunderground v.1.15,2013-06-16 21:58:00,
2013-06-16 17:00:00,81.3,53.3,29.83,SW,234,7.0,9.0,38,0.00,,,0.01,Wunderground v.1.15,2013-06-16 22:00:00,
2013-06-16 17:02:00,81.3,54.0,29.83,WSW,247,7.0,11.0,39,0.00,,,0.01,Wunderground v.1.15,2013-06-16 22:02:00,
2013-06-16 17:04:00,81.3,54.0,29.83,WSW,240,7.0,11.0,39,0.00,,,0.01,Wunderground v.1.15,2013-06-16 22:04:00,
2013-06-16 17:06:00,81.2,55.3,29.83,SW,215,7.0,11.0,41,0.00,,,0.01,Wunderground v.1.15,2013-06-16 22:06:00,
2013-06-16 17:10:00,81.0,53.7,29.83,WSW,238,7.0,9.0,39,0.00,,,0.01,Wunderground v.1.15,2013-06-16 22:10:00,
2013-06-16 17:12:00,81.0,55.1,29.83,WSW,242,7.0,9.0,41,0.00,,,0.01,Wunderground v.1.15,2013-06-16 22:12:00,
2013-06-16 17:14:00,80.9,54.3,29.83,WSW,255,6.0,9.0,40,0.00,,,0.01,Wunderground v.1.15,2013-06-16 22:14:00,
2013-06-16 17:16:00,80.8,53.5,29.82,WSW,249,7.0,9.0,39,0.00,,,0.01,Wunderground v.1.15,2013-06-16 22:16:00,
2013-06-16 17:18:00,80.7,54.8,29.82,WSW,250,7.0,11.0,41,0.00,,,0.01,Wunderground v.1.15,2013-06-16 22:18:00,
2013-06-16 17:22:00,80.5,54.0,29.82,WSW,255,7.0,9.0,40,0.00,,,0.01,Wunderground v.1.15,2013-06-16 22:22:00,
2013-06-16 17:24:00,80.3,54.5,29.82,WSW,240,7.0,9.0,41,0.00,,,0.01,Wunderground v.1.15,2013-06-16 22:24:00,
2013-06-16 17:26:00,80.2,55.0,29.82,WSW,249,7.0,9.0,42,0.00,,,0.01,Wunderground v.1.15,2013-06-16 22:26:00,
2013-06-16 17:30:00,80.0,54.8,29.82,WSW,250,7.0,9.0,42,0.00,,,0.01,Wunderground v.1.15,2013-06-16 22:30:00,
2013-06-16 17:32:00,80.0,54.2,29.82,West,264,7.0,9.0,41,0.00,,,0.01,Wunderground v.1.15,2013-06-16 22:32:00,
2013-06-16 17:34:00,79.9,54.8,29.82,West,269,6.0,9.0,42,0.00,,,0.01,Wunderground v.1.15,2013-06-16 22:34:00,
2013-06-16 17:38:00,79.8,54.7,29.82,WSW,246,6.0,11.0,42,0.00,,,0.01,Wunderground v.1.15,2013-06-16 22:38:00,
2013-06-16 17:40:00,79.8,55.3,29.82,WSW,240,6.0,9.0,43,0.00,,,0.01,Wunderground v.1.15,2013-06-16 22:40:00,
2013-06-16 17:46:00,79.7,53.9,29.82,WSW,257,7.0,9.0,41,0.00,,,0.01,Wunderground v.1.15,2013-06-16 22:46:00,
2013-06-16 17:50:00,79.5,55.0,29.82,WSW,240,7.0,7.0,43,0.00,,,0.01,Wunderground v.1.15,2013-06-16 22:50:00,
2013-06-16 17:52:00,79.3,55.5,29.82,SW,232,7.0,9.0,44,0.00,,,0.01,Wunderground v.1.15,2013-06-16 22:52:00,
2013-06-16 17:54:00,79.2,54.8,29.82,WSW,250,7.0,9.0,43,0.00,,,0.01,Wunderground v.1.15,2013-06-16 22:54:00,
2013-06-16 17:56:00,79.2,55.4,29.81,WSW,250,7.0,9.0,44,0.00,,,0.01,Wunderground v.1.15,2013-06-16 22:56:00,
2013-06-16 17:58:00,79.1,56.5,29.81,SW,231,7.0,9.0,46,0.00,,,0.01,Wunderground v.1.15,2013-06-16 22:58:00,
2013-06-16 18:00:00,79.0,57.0,29.81,SW,235,6.0,9.0,47,0.00,,,0.01,Wunderground v.1.15,2013-06-16 23:00:00,
2013-06-16 18:02:00,78.9,58.7,29.81,WSW,247,6.0,9.0,50,0.00,,,0.01,Wunderground v.1.15,2013-06-16 23:02:00,
2013-06-16 18:04:00,78.8,58.6,29.81,SW,231,6.0,9.0,50,0.00,,,0.01,Wunderground v.1.15,2013-06-16 23:04:00,
2013-06-16 18:08:00,78.9,59.2,29.81,SW,226,5.0,9.0,51,0.00,,,0.01,Wunderground v.1.15,2013-06-16 23:08:00,
2013-06-16 18:10:00,79.1,59.4,29.80,SW,231,6.0,11.0,51,0.00,,,0.01,Wunderground v.1.15,2013-06-16 23:10:00,
2013-06-16 18:12:00,79.2,59.0,29.80,SW,223,6.0,11.0,50,0.00,,,0.01,Wunderground v.1.15,2013-06-16 23:12:00,
2013-06-16 18:16:00,78.9,59.8,29.79,WSW,239,7.0,11.0,52,0.00,,,0.01,Wunderground v.1.15,2013-06-16 23:16:00,
2013-06-16 18:18:00,78.9,58.7,29.80,SW,232,8.0,11.0,50,0.00,,,0.01,Wunderground v.1.15,2013-06-16 23:18:00,
2013-06-16 18:22:00,78.9,57.5,29.79,WSW,240,7.0,8.0,48,0.00,,,0.01,Wunderground v.1.15,2013-06-16 23:22:00,
2013-06-16 18:24:00,78.8,56.3,29.79,SSW,207,8.0,9.0,46,0.00,,,0.01,Wunderground v.1.15,2013-06-16 23:24:00,
2013-06-16 18:26:00,78.8,57.4,29.79,WSW,240,8.0,9.0,48,0.00,,,0.01,Wunderground v.1.15,2013-06-16 23:26:00,
2013-06-16 18:30:00,78.5,58.3,29.78,West,260,8.0,8.0,50,0.00,,,0.01,Wunderground v.1.15,2013-06-16 23:30:00,
2013-06-16 18:32:00,78.5,58.3,29.78,SSW,213,8.0,9.0,50,0.00,,,0.01,Wunderground v.1.15,2013-06-16 23:32:00,
2013-06-16 18:36:00,78.7,57.4,29.78,WSW,252,6.0,9.0,48,0.00,,,0.01,Wunderground v.1.15,2013-06-16 23:36:00,
2013-06-16 18:40:00,79.1,58.3,29.78,WSW,256,5.0,9.0,49,0.00,,,0.01,Wunderground v.1.15,2013-06-16 23:40:00,
2013-06-16 18:42:00,79.1,57.7,29.78,WSW,255,5.0,9.0,48,0.00,,,0.01,Wunderground v.1.15,2013-06-16 23:42:00,
2013-06-16 18:44:00,79.1,57.7,29.78,WSW,246,4.0,9.0,48,0.00,,,0.01,Wunderground v.1.15,2013-06-16 23:44:00,
2013-06-16 18:48:00,79.1,55.9,29.78,West,278,4.0,9.0,45,0.00,,,0.01,Wunderground v.1.15,2013-06-16 23:48:00,
2013-06-16 18:52:00,79.2,58.4,29.78,WNW,294,3.0,9.0,49,0.00,,,0.01,Wunderground v.1.15,2013-06-16 23:52:00,
2013-06-16 18:54:00,79.2,57.2,29.78,WNW,284,3.0,9.0,47,0.00,,,0.01,Wunderground v.1.15,2013-06-16 23:54:00,
2013-06-16 18:56:00,79.2,57.2,29.78,WNW,294,3.0,9.0,47,0.00,,,0.01,Wunderground v.1.15,2013-06-16 23:56:00,
2013-06-16 19:00:00,79.2,57.8,29.78,West,260,2.0,2.0,48,0.00,,,0.01,Wunderground v.1.15,2013-06-17 00:00:00,
2013-06-16 19:06:00,78.9,59.2,29.78,WSW,240,1.0,9.0,51,0.00,,,0.01,Wunderground v.1.15,2013-06-17 00:06:00,
2013-06-16 19:10:00,78.6,59.0,29.78,West,277,1.0,9.0,51,0.00,,,0.01,Wunderground v.1.15,2013-06-17 00:10:00,
2013-06-16 19:12:00,78.5,59.9,29.78,West,264,1.0,9.0,53,0.00,,,0.01,Wunderground v.1.15,2013-06-17 00:12:00,
2013-06-16 19:16:00,78.2,60.2,29.78,SW,215,1.0,9.0,54,0.00,,,0.01,Wunderground v.1.15,2013-06-17 00:16:00,
2013-06-16 19:18:00,77.9,58.9,29.78,SW,226,1.0,9.0,52,0.00,,,0.01,Wunderground v.1.15,2013-06-17 00:18:00,
2013-06-16 19:20:00,77.8,60.3,29.78,SW,224,1.0,9.0,55,0.00,,,0.01,Wunderground v.1.15,2013-06-17 00:20:00,
2013-06-16 19:24:00,77.5,60.1,29.78,SW,221,1.0,9.0,55,0.00,,,0.01,Wunderground v.1.15,2013-06-17 00:24:00,
2013-06-16 19:26:00,77.3,60.9,29.78,SSW,205,1.0,9.0,57,0.00,,,0.01,Wunderground v.1.15,2013-06-17 00:26:00,
2013-06-16 19:28:00,77.3,60.4,29.78,SSW,212,1.0,9.0,56,0.00,,,0.01,Wunderground v.1.15,2013-06-17 00:28:00,
2013-06-16 19:34:00,77.5,61.1,29.78,SW,226,2.0,9.0,57,0.00,,,0.01,Wunderground v.1.15,2013-06-17 00:34:00,
2013-06-16 19:36:00,77.6,61.2,29.78,SW,232,2.0,9.0,57,0.00,,,0.01,Wunderground v.1.15,2013-06-17 00:36:00,
2013-06-16 19:38:00,77.6,60.7,29.79,WSW,250,2.0,9.0,56,0.00,,,0.01,Wunderground v.1.15,2013-06-17 00:38:00,
2013-06-16 19:40:00,77.7,60.8,29.79,SW,231,2.0,9.0,56,0.00,,,0.01,Wunderground v.1.15,2013-06-17 00:40:00,
2013-06-16 19:42:00,77.8,60.3,29.79,West,265,2.0,9.0,55,0.00,,,0.01,Wunderground v.1.15,2013-06-17 00:42:00,
2013-06-16 19:46:00,77.9,59.4,29.79,West,272,3.0,9.0,53,0.00,,,0.01,Wunderground v.1.15,2013-06-17 00:46:00,
2013-06-16 19:48:00,77.9,58.9,29.79,WSW,242,3.0,9.0,52,0.00,,,0.01,Wunderground v.1.15,2013-06-17 00:48:00,
2013-06-16 19:52:00,77.8,59.8,29.80,WSW,248,3.0,9.0,54,0.00,,,0.01,Wunderground v.1.15,2013-06-17 00:52:00,
2013-06-16 19:56:00,77.5,58.5,29.80,WSW,240,3.0,9.0,52,0.00,,,0.01,Wunderground v.1.15,2013-06-17 00:56:00,
2013-06-16 19:58:00,77.3,58.8,29.81,WSW,252,3.0,9.0,53,0.00,,,0.01,Wunderground v.1.15,2013-06-17 00:58:00,
2013-06-16 20:00:00,76.9,58.5,29.81,WSW,248,4.0,9.0,53,0.00,,,0.01,Wunderground v.1.15,2013-06-17 01:00:00,
2013-06-16 20:04:00,76.3,58.4,29.81,WSW,238,4.0,9.0,54,0.00,,,0.01,Wunderground v.1.15,2013-06-17 01:04:00,
2013-06-16 20:06:00,76.1,58.8,29.81,SW,235,3.0,9.0,55,0.00,,,0.01,Wunderground v.1.15,2013-06-17 01:06:00,
2013-06-16 20:10:00,75.5,58.7,29.81,SW,225,3.0,3.0,56,0.00,,,0.01,Wunderground v.1.15,2013-06-17 01:10:00,
2013-06-16 20:12:00,75.3,59.0,29.81,SW,227,3.0,4.0,57,0.00,,,0.01,Wunderground v.1.15,2013-06-17 01:12:00,
2013-06-16 20:16:00,74.9,59.1,29.81,WSW,240,3.0,9.0,58,0.00,,,0.01,Wunderground v.1.15,2013-06-17 01:16:00,
2013-06-16 20:18:00,74.8,59.0,29.81,SW,236,3.0,9.0,58,0.00,,,0.01,Wunderground v.1.15,2013-06-17 01:18:00,
2013-06-16 20:20:00,74.6,58.8,29.81,WSW,248,3.0,3.0,58,0.00,,,0.01,Wunderground v.1.15,2013-06-17 01:20:00,
2013-06-16 20:24:00,74.3,59.0,29.81,West,260,2.0,9.0,59,0.00,,,0.01,Wunderground v.1.15,2013-06-17 01:24:00,
2013-06-16 20:26:00,74.3,59.0,29.82,WSW,252,2.0,9.0,59,0.00,,,0.01,Wunderground v.1.15,2013-06-17 01:26:00,
2013-06-16 20:30:00,74.1,58.9,29.81,WSW,240,2.0,9.0,59,0.00,,,0.01,Wunderground v.1.15,2013-06-17 01:30:00,
2013-06-16 20:32:00,74.0,59.2,29.82,SW,231,2.0,9.0,60,0.00,,,0.01,Wunderground v.1.15,2013-06-17 01:32:00,
2013-06-16 20:36:00,73.9,59.6,29.82,WSW,253,2.0,9.0,61,0.00,,,0.01,Wunderground v.1.15,2013-06-17 01:36:00,
2013-06-16 20:38:00,73.8,59.5,29.81,West,261,2.0,9.0,61,0.00,,,0.01,Wunderground v.1.15,2013-06-17 01:38:00,
2013-06-16 20:40:00,73.5,59.7,29.81,West,259,2.0,2.0,62,0.00,,,0.01,Wunderground v.1.15,2013-06-17 01:40:00,
2013-06-16 20:42:00,73.2,59.8,29.81,WSW,248,1.0,9.0,63,0.00,,,0.01,Wunderground v.1.15,2013-06-17 01:42:00,
2013-06-16 20:44:00,72.9,59.6,29.81,WSW,244,1.0,9.0,63,0.00,,,0.01,Wunderground v.1.15,2013-06-17 01:44:00,
2013-06-16 20:46:00,72.6,59.7,29.82,WSW,257,1.0,9.0,64,0.00,,,0.01,Wunderground v.1.15,2013-06-17 01:46:00,
2013-06-16 20:50:00,72.1,59.7,29.82,WSW,256,1.0,9.0,65,0.00,,,0.01,Wunderground v.1.15,2013-06-17 01:50:00,
2013-06-16 20:52:00,71.9,60.3,29.82,WSW,256,1.0,9.0,67,0.00,,,0.01,Wunderground v.1.15,2013-06-17 01:52:00,
2013-06-16 20:56:00,71.4,60.3,29.82,WSW,252,1.0,9.0,68,0.00,,,0.01,Wunderground v.1.15,2013-06-17 01:56:00,
2013-06-16 20:58:00,71.1,60.4,29.82,WSW,251,1.0,9.0,69,0.00,,,0.01,Wunderground v.1.15,2013-06-17 01:58:00,
2013-06-16 21:02:00,70.6,59.9,29.82,SW,235,1.0,9.0,69,0.00,,,0.01,Wunderground v.1.15,2013-06-17 02:02:00,
2013-06-16 21:04:00,70.5,59.8,29.81,WSW,245,1.0,9.0,69,0.00,,,0.01,Wunderground v.1.15,2013-06-17 02:04:00,
2013-06-16 21:06:00,70.4,59.7,29.81,WSW,245,1.0,9.0,69,0.00,,,0.01,Wunderground v.1.15,2013-06-17 02:06:00,
2013-06-16 21:08:00,70.3,60.1,29.82,WSW,244,2.0,9.0,70,0.00,,,0.01,Wunderground v.1.15,2013-06-17 02:08:00,
2013-06-16 21:10:00,70.2,60.0,29.82,WSW,248,1.0,9.0,70,0.00,,,0.01,Wunderground v.1.15,2013-06-17 02:10:00,
2013-06-16 21:16:00,69.7,59.5,29.82,WSW,249,2.0,9.0,70,0.00,,,0.01,Wunderground v.1.15,2013-06-17 02:16:00,
2013-06-16 21:18:00,69.7,59.9,29.81,WSW,252,2.0,9.0,71,0.00,,,0.01,Wunderground v.1.15,2013-06-17 02:18:00,
2013-06-16 21:20:00,69.6,59.8,29.82,WSW,240,2.0,2.0,71,0.00,,,0.01,Wunderground v.1.15,2013-06-17 02:20:00,
2013-06-16 21:22:00,69.6,59.4,29.82,SW,221,2.0,3.0,70,0.00,,,0.01,Wunderground v.1.15,2013-06-17 02:22:00,
2013-06-16 21:24:00,69.6,59.4,29.82,SW,236,2.0,9.0,70,0.00,,,0.01,Wunderground v.1.15,2013-06-17 02:24:00,
2013-06-16 21:26:00,69.6,59.8,29.82,WSW,240,2.0,9.0,71,0.00,,,0.01,Wunderground v.1.15,2013-06-17 02:26:00,
2013-06-16 21:30:00,69.4,59.6,29.82,SW,224,2.0,9.0,71,0.00,,,0.01,Wunderground v.1.15,2013-06-17 02:30:00,
2013-06-16 21:32:00,69.2,59.8,29.82,SW,232,2.0,9.0,72,0.00,,,0.01,Wunderground v.1.15,2013-06-17 02:32:00,
2013-06-16 21:34:00,69.0,59.2,29.81,SW,232,2.0,9.0,71,0.00,,,0.01,Wunderground v.1.15,2013-06-17 02:34:00,
2013-06-16 21:36:00,69.0,59.2,29.81,SW,231,2.0,9.0,71,0.00,,,0.01,Wunderground v.1.15,2013-06-17 02:36:00,
2013-06-16 21:38:00,68.9,59.1,29.81,WSW,245,2.0,9.0,71,0.00,,,0.01,Wunderground v.1.15,2013-06-17 02:38:00,
2013-06-16 21:42:00,68.7,59.3,29.81,WSW,252,2.0,9.0,72,0.00,,,0.01,Wunderground v.1.15,2013-06-17 02:42:00,
2013-06-16 21:44:00,68.5,59.1,29.81,WSW,249,2.0,9.0,72,0.00,,,0.01,Wunderground v.1.15,2013-06-17 02:44:00,
2013-06-16 21:48:00,68.1,59.1,29.82,WSW,242,2.0,9.0,73,0.00,,,0.01,Wunderground v.1.15,2013-06-17 02:48:00,
2013-06-16 21:50:00,68.0,59.0,29.82,WSW,238,2.0,9.0,73,0.00,,,0.01,Wunderground v.1.15,2013-06-17 02:50:00,
2013-06-16 21:54:00,67.9,58.5,29.82,WSW,239,2.0,9.0,72,0.00,,,0.01,Wunderground v.1.15,2013-06-17 02:54:00,
2013-06-16 21:56:00,67.9,58.1,29.82,WSW,240,2.0,9.0,71,0.00,,,0.01,Wunderground v.1.15,2013-06-17 02:56:00,
2013-06-16 21:58:00,67.9,58.1,29.82,WSW,250,2.0,9.0,71,0.00,,,0.01,Wunderground v.1.15,2013-06-17 02:58:00,
2013-06-16 22:00:00,68.0,58.2,29.82,WSW,255,2.0,9.0,71,0.00,,,0.01,Wunderground v.1.15,2013-06-17 03:00:00,
2013-06-16 22:06:00,67.5,58.5,29.82,WSW,250,2.0,9.0,73,0.00,,,0.01,Wunderground v.1.15,2013-06-17 03:06:00,
2013-06-16 22:10:00,67.0,58.4,29.82,WSW,248,1.0,9.0,74,0.00,,,0.01,Wunderground v.1.15,2013-06-17 03:10:00,
2013-06-16 22:12:00,66.8,58.6,29.82,WSW,244,1.0,9.0,75,0.00,,,0.01,Wunderground v.1.15,2013-06-17 03:12:00,
2013-06-16 22:16:00,66.6,58.4,29.82,SW,227,1.0,9.0,75,0.00,,,0.01,Wunderground v.1.15,2013-06-17 03:16:00,
2013-06-16 22:18:00,66.6,58.4,29.83,SW,234,1.0,9.0,75,0.00,,,0.01,Wunderground v.1.15,2013-06-17 03:18:00,
2013-06-16 22:20:00,66.6,58.4,29.83,WSW,239,1.0,9.0,75,0.00,,,0.01,Wunderground v.1.15,2013-06-17 03:20:00,
2013-06-16 22:24:00,66.6,58.4,29.83,WSW,256,1.0,9.0,75,0.00,,,0.01,Wunderground v.1.15,2013-06-17 03:24:00,
2013-06-16 22:26:00,66.5,58.3,29.83,WSW,244,2.0,9.0,75,0.00,,,0.01,Wunderground v.1.15,2013-06-17 03:26:00,
2013-06-16 22:30:00,66.4,58.2,29.83,SW,228,2.0,9.0,75,0.00,,,0.01,Wunderground v.1.15,2013-06-17 03:30:00,
2013-06-16 22:36:00,66.2,58.0,29.84,SW,235,2.0,9.0,75,0.00,,,0.01,Wunderground v.1.15,2013-06-17 03:36:00,
2013-06-16 22:38:00,66.2,58.0,29.84,SW,225,2.0,9.0,75,0.00,,,0.01,Wunderground v.1.15,2013-06-17 03:38:00,
2013-06-16 22:42:00,66.4,58.2,29.84,SW,233,2.0,9.0,75,0.00,,,0.01,Wunderground v.1.15,2013-06-17 03:42:00,
2013-06-16 22:44:00,66.5,58.0,29.84,SW,228,3.0,9.0,74,0.00,,,0.01,Wunderground v.1.15,2013-06-17 03:44:00,
2013-06-16 22:46:00,66.7,57.8,29.84,SW,228,3.0,9.0,73,0.00,,,0.01,Wunderground v.1.15,2013-06-17 03:46:00,
2013-06-16 22:48:00,66.7,57.8,29.85,WSW,238,3.0,9.0,73,0.00,,,0.01,Wunderground v.1.15,2013-06-17 03:48:00,
2013-06-16 22:52:00,66.8,57.9,29.84,West,262,3.0,9.0,73,0.00,,,0.01,Wunderground v.1.15,2013-06-17 03:52:00,
2013-06-16 22:56:00,66.7,57.8,29.85,WSW,256,2.0,9.0,73,0.00,,,0.01,Wunderground v.1.15,2013-06-17 03:56:00,
2013-06-16 22:58:00,66.7,57.8,29.85,SW,217,3.0,9.0,73,0.00,,,0.01,Wunderground v.1.15,2013-06-17 03:58:00,
2013-06-16 23:02:00,66.5,58.0,29.85,WSW,239,3.0,9.0,74,0.00,,,0.01,Wunderground v.1.15,2013-06-17 04:02:00,
2013-06-16 23:04:00,66.4,57.9,29.85,SW,219,3.0,9.0,74,0.00,,,0.01,Wunderground v.1.15,2013-06-17 04:04:00,
2013-06-16 23:06:00,66.2,58.0,29.84,SW,228,3.0,9.0,75,0.00,,,0.01,Wunderground v.1.15,2013-06-17 04:06:00,
2013-06-16 23:08:00,66.0,57.8,29.84,WSW,239,3.0,9.0,75,0.00,,,0.01,Wunderground v.1.15,2013-06-17 04:08:00,
2013-06-16 23:10:00,65.8,58.0,29.84,SW,233,3.0,9.0,76,0.00,,,0.01,Wunderground v.1.15,2013-06-17 04:10:00,
2013-06-16 23:14:00,65.5,58.5,29.85,WSW,238,2.0,9.0,78,0.00,,,0.01,Wunderground v.1.15,2013-06-17 04:14:00,
2013-06-16 23:16:00,65.5,58.5,29.85,SW,229,2.0,9.0,78,0.00,,,0.01,Wunderground v.1.15,2013-06-17 04:16:00,
2013-06-16 23:22:00,65.4,58.4,29.84,WSW,256,2.0,9.0,78,0.00,,,0.01,Wunderground v.1.15,2013-06-17 04:22:00,
2013-06-16 23:24:00,65.4,58.4,29.84,WSW,239,2.0,9.0,78,0.00,,,0.01,Wunderground v.1.15,2013-06-17 04:24:00,
2013-06-16 23:28:00,65.2,58.5,29.84,West,269,2.0,9.0,79,0.00,,,0.01,Wunderground v.1.15,2013-06-17 04:28:00,
2013-06-16 23:32:00,64.8,58.5,29.84,West,264,2.0,9.0,80,0.00,,,0.01,Wunderground v.1.15,2013-06-17 04:32:00,
2013-06-16 23:34:00,64.5,58.5,29.84,West,260,2.0,9.0,81,0.00,,,0.01,Wunderground v.1.15,2013-06-17 04:34:00,
2013-06-16 23:38:00,63.8,58.2,29.84,WSW,252,1.0,9.0,82,0.00,,,0.01,Wunderground v.1.15,2013-06-17 04:38:00,
2013-06-16 23:40:00,63.7,58.1,29.84,West,259,1.0,9.0,82,0.00,,,0.01,Wunderground v.1.15,2013-06-17 04:40:00,
2013-06-16 23:42:00,63.6,58.0,29.84,WSW,255,1.0,9.0,82,0.00,,,0.01,Wunderground v.1.15,2013-06-17 04:42:00,
2013-06-16 23:44:00,63.5,57.9,29.84,WSW,253,1.0,9.0,82,0.00,,,0.01,Wunderground v.1.15,2013-06-17 04:44:00,
2013-06-16 23:50:00,63.7,57.4,29.83,SW,219,2.0,9.0,80,0.00,,,0.01,Wunderground v.1.15,2013-06-17 04:50:00,
2013-06-16 23:52:00,63.7,57.8,29.83,SSW,207,2.0,9.0,81,0.00,,,0.01,Wunderground v.1.15,2013-06-17 04:52:00,
2013-06-16 23:54:00,63.5,57.6,29.83,SW,225,2.0,9.0,81,0.00,,,0.01,Wunderground v.1.15,2013-06-17 04:54:00,
2013-06-16 23:56:00,63.5,57.6,29.83,SW,219,2.0,9.0,81,0.00,,,0.01,Wunderground v.1.15,2013-06-17 04:56:00,
2013-06-16 23:58:00,63.5,57.6,29.83,SW,226,3.0,9.0,81,0.00,,,0.01,Wunderground v.1.15,2013-06-17 04:58:00,